Skip Page Navigation
NASA JPL Caltech
NASA Logo - Jet Propulsion Laboratory + View the NASA Portal
+ Center for Near-Earth Object Studies
JPL Home Earth Solar System Stars & Galaxies Technology
JPL Solar System Dynamics
BODIES ORBITS EPHEMERIDES TOOLS PHYSICAL DATA DISCOVERY FAQ SITE MAP
JPL Small-Body Database Browser
Search: [ help ]  
14130 (1998 QQ103)
Classification: Main-belt Asteroid          SPK-ID: 2014130
Ephemeris | Orbit Diagram | Orbital Elements | Mission Design | Physical Parameters | Discovery Circumstances | Close-Approach Data ]

[ hide orbit diagram ]

For accurate long-term ephemerides, please instead use our Horizons system.This orbit viewer was implemented using two-body methods, and hence should not be used for determining accurate long-term trajectories (over several years or decades) or planetary encounter circumstances.


Orbital Elements at Epoch 2459200.5 (2020-Dec-17.0) TDB
Reference: JPL 34 (heliocentric ecliptic J2000)
 Element Value Uncertainty (1-sigma)   Units 
e .1146178573232527 3.2747e-08  
a 2.279092527623136 7.0629e-09 au
q 2.017867825465536 7.4393e-08 au
i 4.470682912421202 3.6335e-06 deg
node 30.81594819370352 4.7923e-05 deg
peri 351.2755728864755 5.0594e-05 deg
M 147.9830936272196 1.6874e-05 deg
tp 2458683.904089273040
(2019-Jul-19.40408927)
5.8248e-05 TDB
period 1256.728206603042
3.44
5.8419e-06
1.599e-08
d
yr
n .2864581204659089 1.3316e-09 deg/d
Q 2.540317229780735 7.8724e-09 au
  Orbit Determination Parameters
   # obs. used (total)      1761  
   data-arc span      14356 days (39.30 yr)  
   first obs. used      1981-11-24  
   last obs. used      2021-03-15  
   planetary ephem.      DE441  
   SB-pert. ephem.      SB441-N16  
   condition code      0  
   norm. resid. RMS      .52166  
   source      ORB  
   producer      Otto Matic  
   solution date      2021-Apr-13 00:17:50  

Additional Information
 Earth MOID = 1.01968 au 
 Jupiter MOID = 2.90455 au 
 T_jup = 3.594 
[ hide covariance matrix ]
Orbital Elements at Epoch 2456819.5 (2014-Jun-11.0) TDB
Reference: JPL 34 (heliocentric ecliptic J2000)
 Element Value Uncertainty (1-sigma)   Units 
e .1150348749756539 3.2874e-08  
q 2.016560391045015 7.4713e-08 au
tp 2457425.081310647157
(2016-Feb-06.58131065)
5.6574e-05 TDB
node 30.85074719351121 4.7883e-05 deg
peri 350.8164015316394 5.0526e-05 deg
i 4.47388547996301 3.6352e-06 deg
  Orbit Determination Parameters
   # obs. used (total)      1761  
   data-arc span      14356 days (39.30 yr)  
   first obs. used      1981-11-24  
   last obs. used      2021-03-15  
   planetary ephem.      DE441  
   SB-pert. ephem.      SB441-N16  
   condition code      0  
   norm. resid. RMS      .52166  
   source      ORB  
   producer      Otto Matic  
   solution date      2021-Apr-13 00:17:50  

Additional Information
 Jupiter MOID = 2.90455 au 
 T_jup = 3.594 
Orbit Covariance (6×6)
  e q tp node peri i
e 1.080676156888598E-15 -2.447599327311444E-15 -2.73698766780413E-13 4.533390254230861E-15 -9.484166934367406E-14 -5.675847067649912E-16
q -2.447599327311444E-15 5.582001792106002E-15 6.853317255338141E-13 -1.011650371107646E-14 2.276293633946753E-13 1.366116630202536E-15
tp -2.73698766780413E-13 6.853317255338141E-13 3.200660632991426E-9 8.538809960561495E-13 9.240392098026671E-10 5.550503316928706E-13
node 4.533390254230861E-15 -1.011650371107646E-14 8.538809960561495E-13 2.292828087663464E-9 -2.285188134204885E-9 -3.333072455103057E-11
peri -9.484166934367406E-14 2.276293633946753E-13 9.240392098026671E-10 -2.285188134204885E-9 2.552910174950578E-9 3.340071995359311E-11
i -5.675847067649912E-16 1.366116630202536E-15 5.550503316928706E-13 -3.333072455103057E-11 3.340071995359311E-11 1.321461034317852E-11

Ephemeris | Orbit Diagram | Orbital Elements | Mission Design | Physical Parameters | Discovery Circumstances | Close-Approach Data ]

Physical Parameter Table
Parameter Symbol Value Units Sigma Reference Notes
absolute magnitude H 14.75   n/a E2021B10  
diameter diameter 3.690 km 0.177 urn:nasa:pds:neowise_diameters_albedos::2.0[mainbelt] (http://adsabs.harvard.edu/abs/2011ApJ...741...68M)  
geometric albedo albedo 0.156   0.011 urn:nasa:pds:neowise_diameters_albedos::2.0[mainbelt] (http://adsabs.harvard.edu/abs/2011ApJ...741...68M)  

14130 (1998 QQ103)          Discovered 1998-Aug-26 by Elst, E. W. at La Silla
Reference: 20000320/Numbers.arcLast Updated: 2004-04-19

[ show close-approach data ]
Alternate Designations
 1998 QQ103 = 1981 WT5 = 1991 RB36 
Ephemeris | Orbit Diagram | Orbital Elements | Mission Design | Physical Parameters | Discovery Circumstances | Close-Approach Data ]
ABOUT SSD CREDITS/AWARDS PRIVACY/COPYRIGHT GLOSSARY LINKS
FirstGov 2021-Apr-17 12:40 UT
(server date/time)  
NASA Home Page
Site Manager:   Ryan S. Park
Webmaster  Alan B. Chamberlin